RH
10 10 12 14 16 19 23 24 23 22 25 33 40 42 43 43 44 45 45 46 50 54 60 64 64 63 65 68 66 66 73 76 77 79 81 79 80 83 83 84 86 85 86 90 87 76 68 56 45 48 53 50 50 53 48 45 41 38 41 43 40 38 38 36 35 39 41 41 41 39 40 45 48 50 53 54 47 39 40 44 47 48 50 53 52 51
13 13 12 16 20 20 19 20 21 22 27 36 43 44 45 46 45 46 45 43 48 55 58 61 62 59 62 67 68 67 69 72 75 78 80 80 78 79 82 84 88 88 80 82 91 83 69 60 48 45 50 48 48 51 47 44 40 36 37 39 39 38 37 37 37 40 43 43 44 43 47 55 57 56 58 59 54 42 38 41 43 45 48 53 55 53
13 15 16 17 18 18 17 18 19 22 26 33 40 42 43 46 47 49 49 43 49 57 55 57 61 60 59 62 67 68 66 68 73 76 78 79 80 78 82 85 86 87 83 83 91 85 71 65 55 48 48 47 47 50 48 44 40 37 36 36 39 40 40 40 39 42 45 47 50 52 57 62 61 59 60 58 56 48 41 40 39 40 45 52 58 59
13 15 16 15 17 19 19 19 19 22 23 23 27 29 31 39 42 46 50 48 54 58 54 56 62 61 59 58 63 68 68 67 68 75 79 79 81 80 81 84 83 82 85 89 90 84 75 67 59 50 47 46 46 49 49 44 41 40 36 33 35 37 37 41 41 43 48 52 58 61 64 68 63 61 61 56 54 50 43 39 37 37 40 45 51 54
13 15 15 14 17 19 19 19 19 20 21 20 21 19 22 33 38 41 46 49 62 65 55 59 68 64 57 53 56 63 68 69 67 72 79 80 81 82 81 81 80 79 83 89 89 83 74 66 62 54 47 46 45 46 50 47 43 43 38 32 34 33 32 37 40 43 49 54 59 58 58 63 61 58 59 54 51 51 46 39 37 36 36 39 43 45
13 15 14 13 16 17 16 16 16 17 19 21 19 14 15 24 33 42 46 53 73 76 57 59 69 61 49 44 49 56 60 64 68 69 74 80 81 80 81 79 79 81 82 84 85 81 75 68 65 59 48 44 43 44 49 49 46 47 42 34 33 32 29 33 37 40 47 52 58 58 54 57 58 56 57 54 51 51 47 42 39 37 36 38 40 41
12 13 13 13 15 14 14 14 14 14 15 17 15 12 11 19 33 43 43 52 71 70 55 54 58 51 43 39 45 53 54 57 62 64 67 75 80 80 80 79 80 81 79 82 84 83 80 72 65 61 50 44 43 42 48 51 48 50 46 37 34 32 27 30 32 37 46 51 56 63 63 63 64 62 61 57 52 48 45 43 42 38 36 38 41 40
11 11 10 12 13 12 11 12 13 12 11 12 11 11 11 19 37 44 40 46 50 48 50 52 53 54 47 39 44 51 55 58 58 58 62 67 75 79 81 80 79 79 77 79 85 85 82 75 67 62 53 46 45 44 47 50 49 51 50 39 35 33 28 29 30 35 45 50 55 63 66 67 68 66 63 59 53 47 45 44 42 38 36 37 40 41
12 12 9 9 11 10 9 9 11 10 9 10 10 11 15 24 37 38 37 43 38 39 54 55 55 63 53 37 41 49 52 56 54 53 57 61 67 73 78 81 79 78 75 76 83 84 81 76 69 66 59 50 47 45 46 49 50 53 53 44 37 34 30 28 30 36 44 50 54 59 60 60 63 63 60 57 53 49 47 44 41 38 37 38 40 41
12 13 11 10 10 10 9 9 10 10 8 11 10 10 17 27 33 32 35 41 37 36 44 44 48 59 53 36 37 46 47 48 50 51 54 57 61 65 72 80 80 77 74 75 81 83 80 76 71 70 67 57 48 45 46 48 50 54 56 49 40 35 32 29 29 34 42 49 50 53 55 53 55 58 56 56 56 53 50 47 45 43 41 43 43 42
12 12 12 12 12 12 11 10 10 11 11 11 11 10 11 17 25 33 39 38 35 32 26 25 33 45 49 41 37 42 45 46 50 53 55 57 60 63 67 75 81 78 74 74 79 84 84 79 76 75 72 64 52 46 46 46 49 54 56 54 45 36 33 32 30 31 36 41 43 47 51 49 51 55 55 57 60 58 54 52 50 50 48 48 48 46
13 12 13 13 13 12 12 11 10 11 12 11 12 12 9 9 12 21 27 21 24 34 33 30 35 43 49 46 42 45 48 50 53 52 53 54 56 62 66 71 79 79 75 74 76 83 86 82 79 77 76 70 57 47 45 44 46 51 54 55 50 39 33 33 33 32 32 34 36 40 46 47 48 51 55 59 62 58 54 54 53 51 49 50 50 47
14 14 13 12 14 14 13 11 9 11 11 10 12 12 11 12 11 17 29 25 25 43 50 44 45 53 55 48 45 48 47 49 54 56 56 54 53 58 63 67 76 79 76 74 74 80 86 83 78 75 75 72 62 50 45 42 42 47 51 53 53 43 34 32 33 34 32 30 32 35 41 46 47 50 55 59 62 59 53 52 54 52 49 49 48 45
16 16 14 12 14 15 15 12 10 12 11 11 13 12 14 21 25 34 46 41 37 50 59 54 49 54 59 56 55 54 50 48 52 58 61 59 57 58 61 65 72 78 78 75 73 75 81 82 77 73 73 71 65 55 47 43 41 43 47 49 52 48 38 32 34 36 31 27 29 32 38 45 47 50 55 57 59 58 52 50 51 50 48 49 51 49
16 17 15 12 14 16 17 15 14 14 15 19 20 16 17 26 33 41 44 39 39 52 65 62 51 52 59 61 61 59 56 54 55 59 63 66 64 60 59 65 70 76 78 76 72 72 77 82 78 74 73 71 68 61 51 45 41 42 44 46 49 49 42 34 34 36 31 24 26 31 36 42 46 50 55 55 56 55 52 50 50 48 46 46 50 51
16 16 14 13 16 17 17 17 16 15 17 22 24 23 25 27 30 33 35 34 35 49 67 65 53 55 60 59 59 58 58 59 57 57 60 65 69 63 57 61 70 76 79 77 73 71 74 81 80 75 73 74 73 66 55 47 43 42 42 44 48 48 43 38 34 37 34 25 23 29 33 39 44 49 53 53 52 53 52 49 48 48 47 45 45 46
15 16 14 14 17 17 17 18 18 17 18 21 24 29 31 30 30 31 33 32 32 43 57 57 53 59 62 59 57 56 60 61 57 55 57 60 66 65 58 61 71 77 79 78 75 72 76 83 84 79 74 74 76 71 59 48 43 44 45 45 47 47 44 41 37 38 38 29 23 27 32 35 39 44 48 51 51 51 51 49 45 46 49 48 46 45
15 15 14 15 17 18 19 18 19 18 19 20 24 28 31 32 32 31 35 40 45 50 48 48 55 58 56 58 58 57 60 61 57 57 58 58 60 62 59 63 73 78 80 81 77 73 75 80 82 81 77 74 76 75 64 52 46 47 50 48 47 46 44 42 39 38 40 36 27 25 29 32 36 39 40 45 48 48 49 49 45 45 49 51 51 52
14 13 14 16 17 20 20 19 21 22 21 20 23 26 28 32 34 34 40 47 55 61 53 49 56 53 53 62 63 61 60 58 59 61 61 60 60 59 59 64 73 78 80 83 82 77 75 75 75 79 80 76 77 78 71 62 54 52 54 53 50 49 47 45 42 39 40 41 36 31 30 31 35 38 36 37 41 43 45 47 48 48 50 52 52 53
13 12 14 15 15 18 19 20 22 25 25 24 27 29 27 31 35 36 41 44 53 66 61 56 57 57 64 72 66 60 57 56 61 65 66 67 66 64 62 64 71 76 79 82 82 80 77 74 70 73 79 79 78 78 73 68 61 56 58 59 56 53 51 49 46 42 39 40 41 39 37 37 37 38 37 36 36 38 40 43 47 49 51 52 52 50
13 13 14 13 14 17 18 20 21 23 26 27 30 31 30 33 35 36 41 42 47 61 64 63 64 59 62 65 58 54 53 53 55 57 63 71 74 73 70 68 70 74 78 81 81 79 77 73 70 71 75 78 79 79 75 71 66 61 61 63 60 55 52 51 49 45 42 41 42 41 41 41 41 41 42 41 39 38 38 40 43 47 49 49 49 49
13 13 13 14 15 18 20 21 22 26 28 27 27 27 27 33 35 38 49 48 42 49 55 60 62 54 52 55 52 53 53 51 50 50 56 65 71 73 71 70 71 72 76 80 82 83 80 75 73 72 72 75 79 80 76 73 70 65 61 62 62 57 51 50 50 46 44 43 43 43 43 43 44 44 46 46 44 42 42 44 46 48 49 49 49 49
11 11 12 15 17 18 22 27 27 28 29 25 26 26 25 32 35 37 47 47 42 46 47 52 58 51 49 53 53 56 56 49 46 49 54 58 62 66 66 66 67 70 76 80 82 86 87 83 80 79 78 75 76 79 78 76 71 64 59 58 60 57 51 51 51 48 46 44 44 45 45 45 45 45 46 46 46 45 47 51 53 53 54 55 53 52
13 13 13 16 18 16 20 28 28 27 28 26 28 28 27 32 36 36 40 38 40 45 45 53 62 52 45 49 51 55 56 50 48 51 55 59 60 61 64 63 63 64 70 78 82 85 90 91 86 83 84 81 76 75 77 78 73 66 61 57 56 56 53 51 52 51 48 44 43 45 46 45 45 44 44 45 44 44 47 52 55 56 57 57 56 56
18 20 19 20 25 23 23 28 27 24 26 26 26 28 29 33 34 35 37 35 39 47 48 55 61 49 41 45 47 49 50 49 48 48 52 60 60 58 63 69 69 65 63 70 78 81 81 83 83 84 86 87 81 73 73 78 77 69 62 58 57 57 55 52 52 51 49 45 44 44 44 45 45 43 43 43 43 43 46 51 54 55 56 57 58 59
17 20 21 22 30 36 34 29 24 20 21 22 22 24 29 33 33 32 35 37 41 47 47 48 48 41 39 43 43 44 46 47 47 45 45 50 53 53 58 65 68 68 65 66 72 79 79 80 86 92 90 86 83 77 73 76 78 71 62 59 59 58 57 55 52 50 48 46 44 43 43 43 43 43 43 44 44 44 47 51 54 55 56 59 61 61
18 18 19 20 24 29 27 21 18 18 18 19 19 21 27 33 33 32 36 38 40 44 44 41 40 38 39 42 40 40 43 46 48 47 44 44 44 46 49 54 58 61 64 66 70 74 76 78 85 93 93 88 86 85 80 73 71 67 61 59 60 60 59 57 53 50 48 47 45 43 42 42 42 43 45 46 47 48 50 51 52 53 55 59 62 62
19 17 17 18 19 21 19 17 18 19 19 18 16 18 25 32 34 34 35 33 36 43 44 40 39 40 40 41 41 41 44 47 47 45 44 43 44 46 46 47 49 52 56 62 66 70 71 70 73 83 92 93 90 91 87 77 68 61 54 53 57 60 62 61 56 51 48 47 45 42 42 43 43 45 48 49 50 50 51 51 50 49 53 60 64 64
19 17 16 15 17 20 19 18 19 18 18 17 16 18 23 28 31 32 30 27 28 35 37 35 37 40 41 42 43 45 47 48 47 45 42 42 46 49 47 44 45 48 50 53 57 62 65 65 65 74 84 89 91 93 91 82 72 63 56 56 57 57 59 62 62 57 51 47 44 42 43 44 44 46 48 50 51 51 52 53 51 49 53 60 63 63
20 20 19 16 17 19 18 18 17 16 17 18 18 19 21 23 25 25 24 25 25 28 32 35 38 41 43 46 48 49 48 47 48 47 43 41 43 45 46 45 47 49 49 50 52 55 58 59 61 69 77 82 86 90 90 87 80 70 64 67 68 64 60 60 62 60 54 50 47 45 46 47 46 47 48 50 54 56 58 60 57 54 56 59 59 62
21 22 22 20 19 20 20 20 19 18 20 20 21 21 19 20 24 25 24 25 27 32 38 42 44 45 47 51 52 52 49 48 50 49 44 41 42 45 48 48 48 49 48 49 52 55 57 56 56 63 72 79 84 85 84 87 88 79 68 67 73 73 68 66 67 62 53 49 49 48 50 53 51 50 51 55 59 61 63 63 59 56 55 54 53 57
22 22 23 23 22 22 22 22 23 23 22 22 25 25 21 20 25 28 27 29 34 40 44 46 49 51 53 53 51 49 48 47 48 47 43 41 41 47 53 50 47 48 44 41 47 55 60 59 58 60 66 74 83 84 79 80 87 87 76 70 74 77 74 73 75 69 55 46 45 47 49 53 54 52 51 53 56 58 59 59 56 54 54 52 51 51
22 21 22 23 23 22 22 23 24 23 23 26 29 29 26 25 26 29 31 33 36 39 40 44 47 47 47 45 43 44 45 46 45 42 40 39 37 42 51 52 48 45 38 32 38 50 58 61 63 64 66 70 77 82 82 78 80 86 86 81 80 81 77 74 76 75 65 50 44 48 52 53 55 55 53 51 52 53 54 55 55 55 57 57 55 52
22 21 22 22 21 22 23 22 23 24 26 28 29 30 32 29 25 27 31 33 33 34 36 38 39 38 39 40 40 40 42 43 44 41 37 36 34 35 44 51 50 44 36 30 33 41 49 56 60 64 67 70 74 79 83 82 79 83 86 86 86 86 84 80 76 75 71 59 52 57 63 62 60 60 59 55 54 55 55 56 58 61 62 60 56 52
21 21 21 20 20 22 22 22 27 31 29 26 26 30 34 30 24 26 31 35 34 33 33 33 34 37 40 42 42 41 41 42 43 41 37 36 34 34 40 49 51 43 34 31 32 35 42 48 53 56 61 66 72 77 80 81 82 82 82 84 86 87 88 88 82 74 70 67 66 69 73 71 66 63 64 63 62 60 57 55 56 59 60 59 57 57
19 20 20 20 20 22 21 23 30 32 26 22 25 31 35 31 26 25 28 32 33 32 32 32 34 38 39 40 40 39 40 41 40 38 36 36 37 38 42 48 50 43 35 33 34 35 39 44 47 51 55 60 66 74 79 83 84 83 84 86 87 86 88 92 89 80 73 72 74 77 77 73 66 62 64 66 65 62 57 54 53 53 54 57 61 63
18 18 19 20 21 22 22 24 26 25 24 25 29 33 34 31 28 27 28 30 31 30 30 30 32 34 35 37 37 36 35 36 34 33 33 35 38 41 44 46 47 43 39 38 37 36 38 42 45 49 53 57 62 67 76 86 91 90 89 90 91 90 89 91 92 88 80 75 76 79 79 71 62 59 62 63 60 58 57 54 52 51 53 55 57 57
19 19 18 19 22 23 23 25 26 26 30 34 34 34 34 32 31 32 30 31 33 31 29 31 34 35 37 38 37 35 33 30 30 32 36 40 43 43 43 43 43 42 42 43 41 38 39 42 46 51 54 57 62 65 68 76 87 94 93 91 93 93 90 90 91 89 84 77 72 76 79 72 63 59 58 58 58 59 59 57 55 55 54 54 58 59
20 20 19 19 24 25 24 26 27 28 34 38 38 37 37 35 35 34 32 32 34 33 32 35 39 39 40 39 36 34 31 28 29 32 37 44 49 51 49 45 43 41 40 39 39 39 42 45 49 56 57 55 57 62 65 67 73 82 87 88 90 91 89 91 93 93 91 81 70 72 76 71 64 58 54 55 61 63 63 62 62 62 62 64 67 67
22 21 20 22 26 26 25 27 27 27 33 39 40 39 40 38 36 36 34 33 34 34 35 38 41 41 40 38 36 36 35 33 33 36 40 46 54 61 60 54 51 47 43 42 45 50 53 52 52 56 57 52 52 58 63 64 64 68 75 84 91 90 87 90 93 92 88 78 70 74 76 69 62 58 52 53 59 64 67 69 69 69 71 71 69 68
25 24 24 26 28 28 28 29 28 28 32 36 38 40 41 40 38 36 36 35 33 33 35 37 36 34 32 33 36 40 40 38 36 39 46 51 56 62 64 61 60 59 56 57 62 64 61 55 54 57 55 51 54 58 60 62 65 65 67 77 89 92 88 89 91 85 79 78 77 78 75 65 60 57 54 54 57 61 68 74 74 72 71 70 69 71
27 28 28 29 29 30 31 30 32 36 38 38 40 43 43 42 41 39 38 38 35 33 32 32 29 27 29 33 37 41 41 38 36 39 47 54 56 58 59 59 62 65 66 66 66 63 58 56 60 61 55 54 60 62 63 67 68 66 66 73 86 92 88 88 90 85 83 86 84 77 70 64 60 58 57 57 58 59 67 74 75 72 70 71 73 74
27 29 32 33 32 33 34 33 35 42 45 43 43 45 46 45 45 45 43 41 38 33 31 30 27 26 32 36 38 38 39 37 35 37 45 53 56 57 57 57 58 63 66 66 63 60 61 64 67 64 59 61 65 65 72 79 73 65 68 76 85 89 85 82 86 87 87 86 80 72 67 64 61 59 59 61 60 59 62 68 72 74 73 73 75 79
30 30 32 35 35 34 35 36 38 43 46 45 44 46 48 47 46 46 44 40 37 33 30 29 27 26 29 32 34 38 40 39 37 36 40 49 57 61 62 59 56 58 65 67 65 64 65 68 70 68 65 66 66 64 71 80 78 74 75 76 79 83 83 80 79 80 79 76 73 71 68 65 63 62 63 64 62 59 61 66 71 74 76 78 80 82
34 34 34 36 37 36 35 36 39 41 42 42 43 44 46 44 44 43 41 38 36 32 29 30 31 29 27 27 31 35 38 37 35 32 34 42 53 61 64 62 60 62 68 70 68 66 67 68 68 69 68 66 65 63 63 67 73 76 76 75 77 78 79 80 80 76 73 72 70 69 67 66 67 67 66 65 64 67 73 74 73 74 77 77 73 68
36 35 35 36 37 37 37 38 39 39 40 40 42 45 47 46 45 44 43 41 38 34 33 36 37 35 31 30 31 33 34 33 31 28 30 37 47 59 66 68 68 69 71 72 70 68 70 70 69 69 68 66 65 64 63 68 76 78 75 79 82 80 78 79 76 71 71 72 70 70 70 69 68 69 71 71 72 77 80 75 70 68 66 60 54 52
42 43 41 38 37 38 41 43 42 40 40 41 43 47 50 50 48 47 46 46 43 39 37 39 39 37 35 33 32 31 31 31 29 28 29 32 39 53 66 71 73 73 72 71 71 69 68 69 69 69 66 65 66 65 65 74 85 86 83 85 88 88 89 85 77 74 78 79 76 78 82 79 74 73 75 75 73 74 73 67 63 60 54 49 48 52
48 50 48 44 41 41 44 47 46 44 45 47 48 51 52 49 46 46 46 48 48 44 39 37 34 32 31 31 31 30 30 31 30 29 29 29 33 48 64 71 72 72 71 70 69 67 64 63 66 68 65 65 68 67 67 75 84 86 86 88 87 87 88 84 81 85 89 85 79 79 81 79 76 74 74 73 70 69 67 63 61 59 55 50 50 53
45 47 46 45 44 44 45 46 46 47 49 51 51 51 49 46 45 46 45 46 46 43 38 33 29 25 23 24 25 25 26 31 33 32 30 30 34 46 61 70 71 70 70 70 69 67 63 60 63 68 67 65 67 67 69 76 80 79 80 82 81 79 78 76 77 79 78 77 77 77 77 79 78 76 73 70 68 66 63 59 59 62 62 59 57 59
46 47 46 46 45 46 46 47 47 47 47 50 51 51 50 49 48 46 45 46 46 39 29 24 22 20 17 17 18 18 19 23 29 33 35 35 36 44 57 70 75 74 72 71 71 70 68 65 66 70 69 68 71 72 73 77 80 80 78 76 75 76 77 76 76 75 74 76 77 75 76 78 77 74 71 68 66 65 62 58 57 57 59 60 61 63
48 50 50 47 46 46 46 47 48 48 48 51 53 52 51 49 48 46 46 46 42 32 22 18 17 16 15 15 16 16 17 20 26 33 38 39 42 49 59 70 77 79 77 74 72 74 76 75 74 75 74 73 74 75 74 76 80 80 76 72 72 75 76 75 74 73 73 74 73 69 69 70 69 68 67 66 64 63 60 58 55 51 51 55 60 63
Wind_Speed
10 13 17 18 16 14 11 9 7 5 9 14 13 8 7 6 6 6 6 6 7 6 7 9 12 14 15 16 19 22 25 27 27 26 22 21 21 20 19 16 16 15 13 14 13 10 10 10 11 14 13 13 13 12 11 10 10 11 11 12 14 15 14 14 14 13 13 13 14 15 14 13 12 11 11 10 10 12 13 14 15 14 14 13 14 14
7 11 14 12 8 6 5 6 8 10 9 13 16 13 10 9 5 5 6 5 6 6 7 9 10 11 12 14 18 21 24 25 26 27 25 23 22 21 20 18 17 16 12 12 15 12 10 9 11 14 13 13 13 12 11 10 10 11 12 13 13 14 14 13 13 12 12 13 13 13 12 11 11 11 11 10 10 11 13 14 15 15 15 14 14 13
8 9 8 3 4 7 9 9 9 8 5 10 15 14 12 12 9 8 9 6 6 8 6 8 9 8 9 11 16 20 22 23 25 28 27 24 23 23 22 20 19 16 13 13 15 14 12 10 11 13 13 13 13 12 12 11 11 12 12 14 14 14 14 13 13 13 13 12 12 12 11 10 10 11 12 11 11 11 12 13 15 16 16 15 14 13
8 5 1 4 7 6 4 2 4 7 6 4 7 8 9 12 13 11 12 9 7 8 5 4 6 7 7 8 12 18 21 23 25 29 30 27 25 25 24 22 20 17 15 15 16 15 14 11 11 13 14 13 13 14 13 12 11 11 13 14 14 14 14 13 14 14 13 12 12 12 12 11 10 11 11 12 12 12 12 13 14 15 15 14 13 12
8 6 6 8 4 3 4 3 5 7 5 3 5 5 7 11 14 10 10 13 11 8 6 5 5 7 6 4 7 13 19 23 25 29 32 31 27 27 26 25 22 19 16 16 16 16 15 12 11 12 14 14 13 13 13 12 11 10 12 14 14 14 13 14 14 14 13 13 12 12 12 12 11 11 11 11 11 11 12 12 13 13 13 13 12 12
10 5 7 8 6 5 6 6 5 5 6 8 6 6 9 9 12 10 11 17 15 11 10 8 5 5 5 4 4 9 14 19 25 29 33 33 31 29 29 27 24 21 18 17 16 16 16 14 12 12 14 14 14 13 13 13 11 10 11 13 14 14 13 13 14 13 13 12 11 10 9 9 9 8 9 9 9 9 10 11 12 12 13 12 12 12
11 4 3 7 8 4 3 7 7 6 8 9 6 7 9 10 11 16 15 17 15 8 9 9 6 4 5 6 5 8 8 11 20 28 33 34 33 32 30 29 27 24 21 19 17 18 18 16 13 13 15 14 14 14 14 15 14 12 12 12 14 14 13 13 13 13 12 12 11 9 8 8 8 8 9 9 10 10 10 11 11 12 12 12 12 11
9 7 6 6 8 7 6 8 9 7 6 3 3 6 7 6 12 19 14 12 9 5 7 9 7 6 8 5 4 8 8 8 15 23 30 34 35 34 32 31 29 27 24 21 19 19 19 18 15 13 15 15 15 15 15 16 15 13 13 13 14 14 14 14 13 12 12 12 12 11 10 10 10 10 11 10 11 11 10 11 11 12 12 12 12 12
6 5 8 8 9 10 7 6 8 7 7 3 1 3 2 3 12 15 12 11 9 7 10 12 10 7 7 5 5 8 9 10 11 16 25 32 34 35 34 33 32 29 26 22 21 21 20 19 16 13 14 15 16 16 16 16 16 15 14 14 15 15 14 14 13 13 13 13 13 13 12 12 12 12 12 11 11 11 10 10 11 11 12 12 12 12
5 3 6 8 8 7 4 4 5 5 7 7 4 2 2 6 10 11 10 14 13 9 10 12 13 9 6 8 9 9 8 8 7 9 16 25 31 33 34 35 34 31 28 24 21 21 20 19 17 14 14 16 18 17 16 17 17 17 16 15 15 15 14 14 14 14 14 14 14 14 12 12 12 13 12 12 12 11 10 10 10 11 12 12 12 12
8 6 7 8 7 8 8 7 6 4 4 5 6 7 6 6 10 13 15 17 12 5 8 8 11 9 4 6 8 8 7 6 4 5 10 18 26 30 32 34 35 34 30 26 23 21 20 19 18 17 15 16 19 19 18 18 18 18 17 16 15 16 15 14 14 14 14 14 14 14 13 12 12 12 12 11 10 10 11 11 10 11 11 11 11 12
11 12 10 9 5 7 10 8 9 9 5 4 4 5 8 9 8 7 9 12 6 4 5 4 9 12 7 5 6 7 7 5 4 5 6 12 19 26 31 34 36 35 32 28 24 21 20 20 20 19 18 17 19 20 19 18 19 19 18 17 16 17 16 15 15 15 14 14 14 14 14 12 12 12 11 10 9 9 10 11 10 10 10 10 11 11
11 17 13 10 6 4 6 7 11 12 9 8 6 3 3 3 3 2 1 5 3 2 2 2 5 9 9 11 13 12 9 7 7 6 5 8 13 19 26 33 37 36 34 30 26 23 21 21 21 21 20 18 19 21 20 18 19 19 19 18 17 17 16 15 15 15 14 15 14 15 14 13 12 12 11 10 10 9 10 10 9 9 9 9 9 9
3 13 15 13 9 6 4 5 9 9 6 7 7 5 4 2 2 2 2 0 2 2 1 2 3 3 4 9 10 10 10 10 9 7 6 6 10 13 17 27 36 37 35 32 28 25 22 21 22 22 21 20 19 20 21 19 18 19 19 19 18 17 17 16 15 14 14 14 15 15 15 14 13 12 11 11 11 11 10 9 9 10 10 9 9 8
10 5 16 16 10 7 7 5 6 7 4 2 2 4 6 4 3 2 2 1 1 2 3 4 3 2 3 5 5 6 8 10 9 7 4 4 8 11 12 20 32 38 37 34 31 27 24 21 22 23 23 21 19 20 21 20 19 19 19 19 18 18 17 17 15 13 12 13 15 16 16 15 14 13 12 11 11 11 11 10 11 10 9 9 9 9
9 4 14 14 8 5 9 8 5 6 5 6 4 2 5 5 2 1 2 2 3 2 2 4 4 2 3 3 5 7 8 8 9 8 6 6 8 11 13 18 28 36 38 35 32 29 25 22 21 23 23 21 19 20 21 21 19 20 20 19 18 18 18 17 15 13 11 12 14 17 17 16 15 14 14 13 12 12 12 11 11 10 10 10 10 9
6 10 9 6 6 5 7 8 6 5 6 5 4 5 7 3 2 1 2 1 0 1 3 6 6 4 4 3 5 7 8 8 8 9 8 6 7 10 13 18 26 34 37 35 33 30 26 24 22 22 22 22 21 20 20 20 19 19 19 19 18 18 18 18 17 15 12 12 13 16 17 17 16 15 14 13 12 12 12 12 11 11 11 11 10 10
1 7 4 3 5 10 7 6 4 5 6 3 3 3 4 4 2 2 1 0 2 1 2 6 8 8 6 3 5 6 6 6 7 7 5 4 4 6 9 15 24 32 36 35 33 32 28 26 24 21 22 22 22 21 19 18 17 17 19 19 19 18 18 18 17 16 15 13 13 14 17 17 16 15 14 14 13 13 13 13 12 12 12 11 11 11
4 4 3 6 6 8 5 4 3 8 5 3 2 2 2 4 2 2 2 1 1 0 1 4 9 9 6 4 4 5 4 5 6 6 6 5 3 4 6 10 20 30 37 36 33 32 30 27 25 22 21 22 23 23 21 18 16 16 17 19 19 18 18 17 17 17 17 15 14 14 16 16 16 15 15 15 15 15 14 13 13 13 12 12 12 12
4 4 2 6 4 1 2 3 2 5 5 5 4 2 2 2 3 4 3 2 2 0 1 2 4 5 6 6 5 4 4 5 6 6 7 8 7 3 5 8 15 25 34 36 34 33 31 28 26 24 22 21 22 24 23 19 16 16 16 19 20 19 18 19 19 18 18 17 16 16 16 16 16 16 16 16 16 16 15 14 13 13 13 12 12 12
4 3 4 3 7 6 5 5 2 5 6 10 9 6 4 3 3 4 3 3 3 2 2 2 2 3 5 7 6 5 5 7 7 8 7 7 8 7 7 9 13 19 27 34 36 35 34 32 28 26 26 23 21 23 25 22 18 17 17 19 21 21 20 20 20 19 19 18 18 17 17 17 17 16 17 17 16 16 15 15 14 14 13 13 12 12
1 2 7 9 8 8 8 9 1 6 8 9 7 4 3 4 5 4 2 3 4 3 3 3 2 5 6 7 6 5 6 7 7 7 6 6 7 8 9 10 13 16 21 29 36 38 37 36 33 30 28 27 24 23 25 25 22 20 19 20 22 23 21 20 20 20 19 19 19 18 17 17 17 17 18 18 17 16 16 15 14 14 14 13 13 13
5 5 8 9 6 6 5 5 5 8 7 4 2 3 1 4 7 5 3 3 2 2 2 2 1 5 7 7 7 6 5 7 8 8 6 6 7 8 10 12 14 16 19 24 33 40 41 40 38 35 31 29 28 26 23 24 25 22 20 20 22 24 22 20 20 20 20 20 20 19 19 19 19 19 19 19 18 17 16 16 15 15 15 14 14 14
8 7 8 8 4 2 7 11 11 7 4 2 1 1 1 3 6 5 4 3 1 3 3 1 1 5 7 6 6 6 6 7 9 9 6 7 8 8 10 13 14 17 20 23 29 37 42 44 41 37 33 31 30 29 24 22 25 25 23 21 22 23 23 21 20 20 20 21 21 21 20 20 20 20 20 19 18 18 17 17 17 17 16 16 16 15
6 5 5 4 1 3 8 11 9 4 3 3 2 3 3 3 4 4 4 2 1 5 5 2 3 8 8 5 5 6 6 5 6 8 7 6 7 7 8 11 12 15 19 23 26 29 33 39 41 37 34 33 32 31 27 22 24 26 26 23 22 23 23 22 21 20 21 21 21 22 22 21 21 21 20 19 19 18 18 18 18 18 17 17 17 16
4 5 5 2 2 3 4 4 1 4 6 8 9 7 6 5 4 3 5 6 6 7 8 6 7 11 9 6 5 5 5 4 4 7 8 7 7 7 8 10 10 12 15 20 24 25 24 28 35 36 34 34 34 33 30 26 24 26 27 25 23 23 23 23 22 21 21 21 22 23 23 22 22 21 20 20 19 19 19 19 18 18 17 17 17 17
4 8 9 8 6 5 3 1 4 8 10 11 14 12 10 9 7 6 7 8 8 9 10 9 8 10 8 5 4 6 6 6 7 9 10 10 9 9 9 10 10 12 14 17 21 25 25 25 29 34 36 35 35 35 32 29 27 28 28 28 25 23 23 24 24 23 22 22 22 23 23 22 21 21 20 20 19 19 19 19 18 18 18 17 17 18
5 7 11 13 13 11 6 6 7 9 10 11 15 12 12 13 12 14 10 5 6 9 9 8 6 6 6 5 6 8 6 6 7 8 10 11 11 11 10 11 12 12 13 16 19 24 28 27 27 31 36 36 36 37 34 32 31 30 30 29 28 25 25 25 25 25 24 23 23 24 23 22 21 21 21 20 19 20 20 20 19 18 18 18 19 19
3 3 5 10 13 11 8 9 9 9 9 11 15 11 12 16 15 14 7 4 7 9 8 7 7 7 6 7 8 8 6 6 7 7 9 11 11 11 12 11 10 9 10 13 16 20 25 28 27 29 36 37 37 38 36 33 32 31 29 29 28 27 26 27 27 27 26 25 24 23 22 21 22 22 21 21 21 21 20 20 20 19 19 20 20 20
2 2 1 5 6 5 6 9 12 12 11 12 15 12 10 13 12 8 4 5 7 9 9 8 8 8 7 7 8 8 9 10 10 9 10 11 10 11 12 9 6 6 8 12 14 15 20 25 26 28 34 38 36 37 37 35 33 32 30 29 29 29 28 28 28 28 27 26 25 24 22 22 22 23 23 23 23 21 21 21 20 20 20 21 21 19
1 2 3 6 5 2 4 7 8 10 11 14 17 12 9 11 9 6 6 8 8 7 8 9 10 9 8 7 7 9 12 13 12 11 10 9 9 11 10 7 4 6 7 10 12 13 15 20 23 25 30 38 37 36 37 36 34 33 32 30 30 32 31 30 30 30 29 28 27 26 25 25 24 25 25 24 23 21 21 21 21 21 21 22 21 19
5 3 4 6 5 3 4 6 7 8 10 13 12 8 5 8 8 6 3 5 7 5 4 8 10 9 7 7 9 11 13 14 15 14 12 10 9 9 8 7 7 8 8 8 10 11 13 15 18 21 27 37 39 36 36 36 35 34 33 32 32 33 33 33 32 32 31 29 28 28 28 27 25 25 25 24 23 22 21 21 21 21 21 21 21 20
8 6 5 7 5 3 3 6 8 10 9 7 7 7 4 7 8 6 6 6 8 7 6 6 7 6 7 9 12 13 14 15 15 15 15 14 12 10 9 9 9 9 10 9 9 10 12 13 15 17 23 34 40 39 36 36 36 37 35 34 34 34 34 34 33 33 32 30 28 28 28 27 26 25 25 25 24 23 23 23 23 22 22 22 22 22
9 9 7 6 4 3 5 7 8 7 4 3 7 9 6 7 5 4 7 8 7 8 8 8 8 8 9 9 11 12 14 15 15 14 14 14 14 14 12 11 11 11 12 11 9 9 11 13 15 16 19 27 37 41 40 38 39 40 39 38 38 37 36 35 35 34 33 30 29 28 27 27 26 26 25 25 25 25 25 24 24 24 24 25 25 24
10 11 9 7 4 3 5 6 5 3 2 2 7 6 6 5 6 4 5 7 5 4 6 8 9 9 9 9 11 13 15 17 17 16 14 13 15 15 14 13 14 14 14 13 11 10 10 12 14 15 16 19 27 36 42 42 42 42 42 42 41 40 39 38 36 35 34 32 30 28 26 27 27 27 26 25 25 26 26 26 25 25 26 26 26 26
12 13 11 7 6 5 4 3 1 3 6 7 8 6 9 6 7 7 4 5 3 2 6 8 9 10 10 11 12 14 16 17 18 18 16 15 15 14 13 14 16 16 16 15 13 11 11 12 13 14 16 18 21 27 34 40 43 45 45 45 44 43 42 40 38 36 34 32 31 30 28 27 28 28 27 26 26 26 27 28 27 27 27 27 26 26
19 18 16 11 8 7 5 5 3 7 8 7 5 8 13 9 8 5 3 3 3 6 8 9 10 10 11 12 12 14 17 18 19 19 18 17 16 15 13 13 15 17 18 17 17 15 14 15 15 15 17 19 20 23 28 34 41 46 48 48 47 45 45 43 41 38 35 33 31 31 30 29 28 29 28 27 26 26 27 29 29 28 28 28 28 28
21 22 22 15 10 11 9 6 2 2 2 1 1 8 11 9 8 6 4 6 7 8 9 9 9 10 10 11 13 15 18 19 18 17 18 17 16 16 15 14 16 18 19 19 19 19 18 18 18 18 20 20 20 22 26 31 38 45 50 50 48 47 46 46 44 40 36 33 31 32 31 29 28 28 27 26 27 28 29 30 30 29 30 32 32 30
12 19 22 15 12 14 11 7 4 2 4 4 3 6 7 5 5 5 7 9 8 9 9 9 9 10 11 13 15 16 18 19 17 16 16 16 15 16 16 16 17 19 20 20 19 19 20 20 19 20 21 22 22 21 25 29 35 42 49 52 51 49 47 44 43 41 38 34 33 33 31 29 28 28 26 24 25 27 29 31 32 32 32 32 31 27
4 13 15 11 11 12 9 7 5 4 6 7 5 6 8 7 7 7 7 8 10 11 10 9 11 12 13 16 17 16 17 17 16 15 15 14 13 14 15 16 18 19 20 20 20 20 20 20 19 19 21 22 23 22 24 29 35 39 43 47 50 50 47 42 38 37 35 34 33 33 31 29 28 28 28 26 25 26 28 32 34 33 29 27 27 27
4 9 10 9 9 7 6 5 4 5 9 11 10 11 12 11 11 10 9 9 11 10 9 10 12 13 14 15 15 13 13 13 14 13 13 13 13 13 14 16 17 18 19 20 20 19 19 19 18 17 19 21 21 21 21 23 29 34 35 38 43 45 44 41 37 34 34 33 32 32 30 28 28 28 29 28 27 29 31 32 32 30 28 27 27 28
8 8 9 10 8 5 6 6 4 5 10 13 13 13 12 12 11 10 9 10 10 9 10 12 12 11 12 12 13 12 12 12 13 13 12 13 14 14 14 15 15 14 15 16 17 16 16 17 15 15 18 19 18 18 14 6 12 20 23 27 32 34 36 38 36 34 33 32 30 29 28 27 27 28 29 29 30 33 33 30 29 30 29 27 28 30
15 11 10 12 9 6 7 7 5 4 7 11 13 12 11 11 11 11 11 11 11 12 13 14 13 11 11 12 12 12 12 12 13 13 12 12 13 13 14 15 13 12 11 12 13 13 14 15 14 14 16 16 15 14 5 7 11 10 14 19 22 25 29 32 33 31 30 29 28 28 27 26 27 28 30 31 32 33 32 30 32 32 29 28 30 32
14 13 10 10 10 9 8 8 6 4 4 7 11 12 11 11 12 12 12 12 12 13 13 13 12 11 12 13 13 13 12 12 12 13 13 12 11 11 12 12 12 11 10 9 10 11 12 12 12 12 13 14 13 10 2 7 7 7 11 15 19 22 25 28 28 27 26 26 26 26 26 28 30 31 31 30 29 31 32 31 31 31 29 28 29 25
10 11 10 9 9 10 9 9 8 6 6 9 10 11 12 12 11 10 11 12 13 13 13 12 12 13 13 14 14 14 13 13 13 13 13 12 11 10 10 10 10 9 8 8 8 9 9 10 9 9 10 12 12 8 4 7 9 10 13 17 20 22 24 26 26 26 26 27 27 28 29 30 29 28 29 29 30 32 30 24 21 20 19 19 17 13
11 12 13 12 11 10 10 11 12 11 12 14 14 13 12 11 10 10 13 14 14 13 13 13 14 15 15 15 15 15 15 14 14 14 13 12 10 9 8 9 8 7 7 7 7 7 7 7 8 8 9 10 9 7 2 3 7 10 14 18 19 22 24 25 24 25 25 25 26 29 32 33 31 29 30 28 26 24 20 15 14 14 14 13 12 11
11 13 12 12 13 12 10 10 11 11 11 13 13 12 11 9 10 13 14 14 13 13 14 14 15 15 15 15 15 15 16 15 14 13 12 11 10 9 8 8 7 7 7 7 6 5 6 6 8 9 8 7 6 4 4 1 5 8 12 15 15 17 21 22 23 25 28 28 28 27 29 30 29 27 24 20 17 17 16 16 16 15 15 15 13 12
8 9 8 9 11 10 8 7 6 6 8 10 11 11 10 11 13 14 13 12 13 15 15 15 15 16 16 15 14 15 16 16 15 14 13 11 10 9 10 9 8 8 8 7 6 5 4 5 7 8 6 4 3 1 3 2 8 13 15 16 15 14 15 15 15 17 20 20 19 18 18 18 19 18 18 17 17 18 18 17 15 13 13 13 13 13
8 8 7 7 9 10 9 10 10 10 10 12 13 13 13 15 15 15 15 14 15 15 15 15 15 16 16 15 15 16 16 16 16 15 13 11 10 10 11 10 9 9 9 8 6 5 4 4 6 6 4 4 4 1 2 4 11 16 18 20 20 17 15 14 13 12 13 14 16 17 17 16 18 18 18 17 16 16 16 14 13 12 12 11 11 12
8 8 7 8 10 12 13 14 15 15 14 14 14 13 14 15 16 18 19 19 18 17 16 15 15 16 16 17 17 17 17 18 18 16 13 11 11 11 11 11 10 9 9 9 7 5 4 4 4 4 3 6 5 1 1 4 11 15 17 18 18 17 16 16 16 15 15 17 18 18 17 16 18 18 17 16 15 14 14 13 12 11 10 10 9 10
9 6 6 8 11 12 14 15 15 15 14 13 12 13 14 16 18 20 20 18 17 16 16 16 16 17 18 19 20 20 20 19 18 17 14 12 12 12 12 11 10 10 9 8 6 4 2 2 2 2 5 9 6 3 3 3 8 14 16 16 17 19 19 19 19 19 18 18 17 17 16 16 16 16 16 16 15 14 13 12 11 11 10 10 10 10
Wind_Direction
168 182 186 193 195 189 190 196 210 254 255 233 216 202 194 173 141 140 148 143 149 160 172 187 200 204 204 204 199 195 195 197 198 197 199 204 206 211 217 223 229 225 212 203 203 201 194 178 173 185 188 182 183 183 183 183 172 165 172 172 165 163 167 170 170 168 164 161 159 158 161 165 164 160 155 155 154 151 153 155 157 160 161 162 161 158
172 179 176 181 185 203 245 266 269 274 254 215 206 205 202 195 172 147 161 159 148 151 152 159 178 196 201 205 204 202 202 203 203 198 197 205 209 212 216 222 229 230 222 204 197 203 207 187 174 184 192 189 185 186 185 182 177 173 174 176 173 169 171 174 171 170 167 162 162 164 165 168 169 165 159 160 163 161 159 159 161 162 163 165 164 162
198 178 152 158 327 310 299 303 282 259 214 198 203 207 208 199 186 165 164 176 161 144 144 160 166 178 191 202 205 207 207 206 206 201 200 206 209 213 217 219 225 228 227 212 201 210 218 203 185 185 194 196 189 189 188 183 181 179 177 178 179 176 176 178 174 172 172 167 166 169 171 175 174 169 163 163 169 170 166 164 165 164 164 166 167 169
227 223 138 315 328 333 310 303 236 200 164 177 196 205 219 204 198 191 173 172 166 144 139 169 175 185 196 205 207 208 208 206 206 203 202 205 209 213 217 219 225 226 228 219 209 218 224 214 197 190 196 200 193 191 191 188 186 182 181 181 182 181 182 183 178 177 178 173 173 177 176 176 175 172 171 168 169 172 171 169 167 165 166 168 170 174
252 282 311 300 275 248 248 226 215 202 171 184 215 263 264 219 212 216 185 169 163 165 170 175 193 201 200 216 211 207 209 208 207 205 203 205 207 212 216 219 223 224 226 225 219 226 230 221 207 196 199 202 199 195 192 193 192 187 188 185 184 186 187 188 184 183 185 181 182 184 179 176 175 174 174 171 169 173 174 171 169 167 168 172 176 178
242 279 298 271 217 213 256 258 244 220 203 209 235 310 317 263 225 210 187 171 169 186 186 180 208 217 213 250 239 211 213 211 210 209 207 206 207 211 216 219 219 219 222 227 232 237 237 232 221 206 202 202 202 199 193 195 194 191 197 193 188 190 192 194 192 189 190 188 188 188 181 176 175 173 171 168 167 173 176 172 172 173 173 176 179 180
229 221 256 238 203 193 245 244 239 219 213 226 264 314 327 299 227 196 185 174 173 189 183 181 211 256 278 288 262 229 221 211 213 213 210 209 210 211 215 218 217 217 219 221 231 240 239 239 232 212 204 203 203 202 196 196 195 192 200 201 195 195 195 198 200 195 192 193 190 185 179 176 177 179 178 173 170 173 176 174 176 178 179 181 181 181
209 206 223 224 214 244 271 244 227 207 200 214 308 299 312 293 210 194 189 175 164 158 172 189 215 261 285 295 265 245 233 211 217 217 211 210 212 212 214 218 219 219 219 218 222 233 239 242 237 217 206 203 203 204 200 200 198 192 199 206 202 201 200 201 205 200 194 195 193 188 185 181 180 184 185 182 178 174 172 175 178 179 181 183 183 183
177 217 229 218 225 255 273 231 210 216 232 237 3 324 335 194 196 193 184 170 158 160 183 196 207 239 270 267 262 259 242 230 232 227 218 213 214 214 214 217 221 220 219 217 219 228 238 241 235 220 207 203 205 206 204 205 202 196 198 205 207 207 204 204 205 202 198 197 197 195 192 186 183 185 185 182 182 177 172 175 178 179 181 184 186 187
184 275 236 217 228 242 240 219 221 248 256 235 221 247 164 161 185 197 193 175 163 177 207 207 203 216 260 262 255 254 254 258 257 244 228 220 217 217 215 215 219 221 218 215 217 224 235 239 234 224 210 204 207 207 205 206 205 201 200 202 207 209 208 207 205 205 204 202 200 199 198 193 187 187 185 181 181 179 175 176 176 177 183 187 189 190
212 245 241 233 225 218 230 240 229 239 272 238 240 249 228 200 193 197 199 184 171 213 247 232 217 219 258 274 254 251 276 298 279 250 234 224 220 218 216 213 216 221 219 214 215 220 230 236 235 230 218 207 208 209 206 206 208 206 203 203 205 208 210 210 207 208 211 208 204 202 201 198 192 191 190 183 180 179 177 178 177 179 183 187 191 192
217 215 228 235 220 226 237 231 219 228 240 244 287 275 240 243 229 203 195 190 194 271 277 267 229 220 231 269 272 266 275 282 258 254 245 231 224 217 215 212 213 220 221 216 214 217 224 232 235 233 223 212 209 210 209 207 208 210 207 203 203 206 209 209 209 211 214 212 208 205 204 201 195 195 193 186 184 185 182 180 181 183 184 186 190 190
228 216 219 223 214 230 224 199 210 222 228 239 280 304 231 256 265 272 218 192 215 291 327 327 217 214 236 256 270 273 261 254 255 265 270 249 230 219 216 212 212 218 222 219 215 214 219 228 234 232 224 216 211 212 213 209 208 211 211 207 204 204 207 208 210 212 215 213 209 208 207 203 199 197 194 190 188 190 190 187 186 188 187 186 187 185
326 213 208 216 218 210 189 170 188 200 228 250 261 249 217 95 74 277 301 343 309 307 118 136 176 207 251 248 262 275 270 272 279 282 285 255 221 212 215 215 214 215 220 221 217 215 218 227 236 234 226 218 213 213 215 213 210 211 213 211 206 203 205 208 210 213 215 214 210 209 208 206 203 199 198 197 193 194 195 193 194 193 190 188 187 184
18 198 198 212 221 198 169 139 159 178 167 114 117 217 204 140 106 217 241 142 228 218 170 173 199 235 233 228 249 273 283 284 288 292 284 248 214 202 204 213 215 215 217 221 220 218 218 224 235 237 230 222 217 216 217 214 210 211 214 214 208 204 203 205 210 212 214 213 209 208 208 207 204 200 202 203 200 199 199 198 198 197 192 191 190 188
23 154 189 210 223 194 169 156 170 195 167 124 108 130 132 116 98 151 173 185 204 208 180 190 197 198 209 237 250 263 287 287 290 302 290 269 247 225 211 206 210 214 215 218 221 219 217 220 231 238 233 228 225 221 218 214 207 206 213 216 212 208 204 204 208 210 211 212 209 207 207 208 206 203 204 204 204 203 204 203 201 197 196 196 195 192
47 130 159 232 233 195 181 180 190 208 193 161 148 118 105 121 281 283 206 226 167 123 164 180 180 183 202 244 256 262 286 286 291 305 296 282 261 236 219 205 204 209 211 214 219 219 216 217 225 236 237 233 229 225 220 213 203 199 207 214 215 211 207 204 205 207 207 208 206 205 206 208 209 209 209 207 206 207 208 207 204 201 201 198 196 194
29 149 113 355 186 167 169 193 178 181 207 195 153 131 122 160 241 302 219 328 44 87 187 188 189 192 197 222 247 258 283 286 288 297 291 288 260 230 218 203 199 204 208 211 217 220 221 219 221 230 237 236 232 229 226 215 200 194 202 210 215 215 211 207 205 205 206 206 204 204 205 209 211 213 213 212 211 210 210 208 207 208 206 203 201 198
231 237 90 82 131 155 182 239 132 132 174 225 229 226 181 167 144 79 84 75 59 17 270 193 190 196 209 226 235 250 277 282 288 297 295 299 279 217 207 199 196 201 207 210 214 220 223 223 221 222 230 236 234 232 231 222 205 195 199 207 213 215 214 211 209 207 207 206 204 204 205 209 213 214 213 214 214 213 212 210 209 210 209 208 209 206
192 251 137 91 51 58 222 261 183 148 170 187 182 171 145 145 135 114 103 129 148 178 299 207 192 190 204 219 226 243 269 279 287 298 300 302 298 249 197 190 194 203 210 213 217 221 223 225 225 220 221 230 237 236 233 227 213 201 199 206 212 213 212 213 212 210 210 209 207 206 207 210 213 215 215 216 217 215 214 215 213 212 212 213 213 211
162 217 244 307 2 18 16 358 277 221 187 163 149 126 121 137 159 157 138 137 160 180 159 174 266 253 223 229 240 255 279 287 289 291 288 282 281 270 234 204 196 205 214 219 223 227 227 229 230 224 217 220 232 239 237 230 219 210 205 206 212 214 212 213 214 212 211 212 211 209 210 212 215 217 219 220 221 219 217 218 216 216 218 217 216 215
156 270 277 306 2 35 20 8 344 181 163 156 145 118 121 161 176 168 141 156 180 197 172 156 254 274 261 253 257 269 287 291 288 289 280 258 250 255 252 232 210 206 213 220 225 228 230 231 231 229 222 216 218 230 236 233 225 217 208 204 210 216 216 214 214 216 215 215 215 213 212 214 216 219 221 224 224 222 221 221 218 219 221 221 220 219
285 289 280 298 357 54 58 64 122 138 127 113 84 54 53 183 186 176 152 165 168 202 226 182 224 274 273 267 270 275 285 295 293 285 266 253 256 254 255 251 232 216 212 218 224 225 226 228 228 228 224 218 214 217 229 237 233 223 212 205 207 215 218 217 215 217 218 218 218 217 215 215 216 219 222 225 226 224 223 223 223 222 222 223 224 224
272 272 267 276 297 111 128 127 126 119 93 43 55 57 310 213 196 190 174 170 172 218 230 164 203 271 278 284 286 283 286 296 299 298 277 256 269 277 271 265 253 236 220 217 226 227 224 224 223 222 221 220 218 216 219 233 237 230 220 211 206 211 217 220 218 218 219 220 220 219 217 216 217 220 222 225 227 225 223 224 226 227 225 226 228 228
254 235 236 266 279 142 147 138 124 95 44 350 299 242 246 200 187 194 186 163 164 208 220 210 239 266 280 293 293 293 295 291 300 313 305 272 269 289 292 283 272 256 234 224 233 239 232 223 219 218 220 219 219 217 216 224 233 232 226 217 209 208 213 218 220 220 219 219 220 221 219 217 218 220 221 223 226 225 224 225 227 230 229 229 231 233
268 233 213 211 157 154 164 161 144 342 335 324 308 282 242 205 204 206 186 188 191 198 212 227 257 274 279 279 283 300 305 290 293 307 302 283 278 295 308 302 290 275 254 235 235 245 243 228 215 213 218 222 220 217 214 217 226 230 227 222 213 206 208 215 220 221 220 218 218 221 221 217 218 220 221 222 223 223 224 225 228 232 233 233 235 238
312 270 240 229 229 222 210 249 321 331 324 319 317 292 239 218 235 228 196 200 199 195 217 243 267 277 272 259 281 307 306 287 285 293 298 299 295 295 302 302 296 284 269 251 240 241 242 237 224 214 212 215 216 216 215 216 220 225 224 221 217 209 207 213 219 221 219 216 217 220 221 218 217 218 220 221 222 223 225 227 228 232 234 235 238 240
332 288 248 236 237 237 259 308 320 326 314 315 328 304 239 221 226 219 211 225 214 203 226 252 255 262 271 272 288 303 304 295 293 294 303 310 307 297 289 289 292 286 274 263 254 246 241 241 239 227 216 211 209 211 215 217 220 222 221 218 215 210 208 211 217 221 219 216 216 218 220 219 217 216 217 219 222 224 226 228 230 232 233 235 238 241
358 330 247 233 232 234 267 296 290 295 301 310 327 310 239 222 218 212 222 273 250 238 254 267 258 259 274 284 293 302 304 306 306 302 306 311 311 303 291 286 292 293 291 284 272 261 250 245 244 236 225 216 210 209 212 217 220 220 220 220 218 213 210 210 213 218 219 218 217 217 218 219 218 217 216 217 220 224 225 227 230 231 232 234 238 242
353 18 217 215 218 237 283 292 280 281 292 308 318 305 252 234 226 221 259 280 269 276 279 274 264 254 257 273 291 304 310 312 309 308 311 310 309 304 291 283 290 296 304 302 287 272 261 254 251 243 228 219 215 211 209 213 218 220 220 222 224 221 216 213 213 215 218 218 217 216 217 218 219 219 218 218 220 223 224 227 230 231 232 235 238 242
228 72 135 185 200 260 308 308 296 288 294 311 320 317 286 264 244 229 262 261 254 268 265 255 252 246 248 267 287 301 312 315 311 307 312 313 313 306 285 261 259 271 284 299 294 280 268 258 256 250 232 221 219 218 214 213 215 220 222 222 225 226 222 218 216 217 217 217 215 214 214 215 217 218 218 219 220 222 225 229 233 235 237 240 242 245
193 156 149 179 211 284 314 310 323 336 319 309 320 331 292 248 217 184 190 215 202 192 201 223 232 233 243 270 289 301 308 309 305 299 299 302 308 304 280 250 246 251 257 282 293 286 277 264 255 248 233 223 222 222 221 219 217 220 224 224 225 227 226 222 220 220 220 219 217 216 215 215 217 220 221 221 222 224 227 231 236 239 241 244 246 248
198 213 193 188 218 252 256 283 327 355 339 304 318 332 275 206 188 163 151 168 183 194 200 204 217 239 267 284 294 300 300 299 299 296 290 286 287 289 276 255 247 237 235 255 277 277 276 271 261 250 234 226 225 225 225 225 222 221 225 228 228 227 226 224 222 222 224 222 220 219 219 217 217 221 225 227 226 226 227 230 235 239 243 246 248 250
214 235 224 209 241 253 231 264 314 341 325 305 330 316 259 214 216 190 169 177 196 215 228 236 250 266 282 290 292 294 293 293 298 299 290 275 272 276 269 253 245 237 232 245 266 270 269 270 267 261 248 234 229 227 225 226 224 222 224 228 229 228 228 225 220 221 223 223 222 222 222 222 221 221 225 229 231 232 231 231 233 237 241 245 247 249
212 209 202 196 207 223 236 261 310 325 249 320 331 296 230 227 276 268 186 172 175 209 247 268 275 277 285 291 292 294 294 294 296 297 290 272 263 267 266 250 238 236 237 247 262 267 268 271 270 270 269 255 239 231 227 226 226 223 223 227 229 229 228 225 219 219 221 222 222 223 223 225 227 225 226 228 232 234 235 234 234 235 239 244 248 251
233 212 202 198 197 207 224 220 257 283 274 303 312 243 198 217 280 284 232 178 166 283 293 298 298 293 295 296 295 296 293 291 291 289 285 274 259 257 262 248 232 233 242 253 262 264 270 276 277 280 283 278 261 244 232 228 227 225 223 225 228 229 228 224 219 218 220 220 220 222 222 223 227 229 227 225 228 232 235 235 235 235 238 243 246 249
244 235 225 221 208 204 198 178 220 282 284 303 302 208 201 229 263 261 236 227 277 308 311 309 303 297 297 295 293 294 292 290 290 289 288 280 262 251 253 245 236 238 247 256 262 266 271 278 284 290 293 290 278 261 245 234 228 226 226 225 224 225 227 225 221 218 218 218 217 219 220 220 223 227 228 226 229 234 237 237 238 239 241 243 244 245
237 236 231 227 203 187 182 165 159 292 260 265 216 194 205 236 241 226 263 289 295 309 310 304 299 294 292 290 290 294 295 293 294 296 295 288 271 257 250 246 245 246 250 258 264 267 272 280 287 294 298 298 288 271 257 246 235 229 228 228 227 226 227 226 223 217 214 216 216 216 217 219 220 223 228 233 237 240 241 240 241 244 245 244 243 242
234 227 228 223 193 181 182 170 158 191 195 176 175 189 195 215 228 247 285 289 296 312 308 296 294 290 286 289 293 298 298 296 298 299 294 288 278 264 253 247 247 249 250 256 261 268 276 283 289 296 300 301 295 279 262 252 243 234 230 230 229 229 228 227 225 217 210 211 215 215 214 217 218 221 228 239 242 241 240 242 243 244 246 248 251 253
234 211 211 197 175 177 180 169 167 194 198 187 191 200 199 213 246 273 286 287 300 312 304 296 296 291 291 295 296 299 301 299 298 297 290 282 275 267 256 247 246 249 251 255 264 272 278 282 288 296 301 304 302 288 266 252 244 236 231 230 230 230 230 229 225 219 211 209 213 214 213 215 217 219 226 236 241 240 240 241 243 245 247 252 259 263
199 188 195 183 171 177 186 180 182 204 206 207 212 210 205 219 243 256 267 285 302 306 298 298 300 297 298 298 296 301 306 302 296 292 286 277 265 259 256 252 253 258 260 265 273 275 275 278 284 296 307 310 309 303 289 264 243 232 230 232 231 228 229 226 221 218 215 210 209 211 213 215 216 219 226 234 238 241 244 245 248 253 254 254 257 260
225 194 200 199 197 204 211 215 219 212 211 215 217 212 211 223 241 252 265 282 294 295 293 297 302 304 305 302 298 301 302 300 297 291 285 278 266 257 256 258 264 272 271 271 275 273 274 280 285 300 315 320 320 319 314 278 214 214 226 236 231 224 225 225 221 218 215 210 207 210 214 216 217 220 227 232 236 243 250 253 255 256 256 255 256 258
240 220 195 189 196 197 192 201 209 201 207 218 225 229 233 239 247 259 270 279 285 289 293 299 305 309 308 304 302 302 298 298 302 299 293 288 276 265 262 261 267 277 277 273 274 275 279 284 285 301 319 324 328 329 323 146 153 191 222 232 226 217 216 219 217 214 210 206 205 208 213 218 221 223 228 232 235 243 251 257 257 256 255 252 251 253
242 229 204 195 208 211 203 206 207 190 204 233 244 248 252 257 263 268 274 281 287 291 297 305 310 309 304 301 301 301 299 300 303 304 303 299 289 279 273 269 271 277 277 277 280 282 287 288 285 297 316 321 325 326 265 179 194 228 225 223 221 210 202 203 206 207 206 207 209 211 213 219 223 225 229 234 238 242 247 254 257 255 252 250 249 252
251 243 238 238 241 239 236 235 232 233 257 275 273 262 256 262 268 273 284 294 300 301 302 304 305 303 299 297 295 293 294 297 300 302 304 305 300 293 289 284 278 273 272 276 283 287 292 296 297 301 311 316 318 314 256 214 225 230 219 216 217 214 208 206 208 212 214 215 217 220 219 217 218 222 228 233 236 239 242 244 244 240 238 240 242 238
255 259 264 265 259 255 252 247 246 252 264 274 275 268 264 271 283 296 304 306 304 302 299 295 296 296 294 292 290 288 288 290 293 296 298 302 304 301 296 289 276 266 265 267 275 292 303 312 321 322 313 309 313 324 329 182 193 208 213 209 209 213 216 216 219 224 224 219 220 223 221 218 218 222 226 225 225 228 227 215 205 203 201 199 197 190
243 250 258 258 254 253 249 244 247 256 265 268 266 262 262 275 293 302 305 301 292 287 285 284 286 288 288 288 286 284 285 285 287 288 290 296 304 302 294 287 272 261 263 262 266 294 316 322 328 327 312 293 294 333 4 83 157 183 199 200 197 201 205 209 219 223 218 214 216 217 214 211 211 213 211 203 194 192 187 180 177 177 175 172 167 159
229 230 233 240 247 244 229 222 233 239 242 245 243 242 253 274 290 296 298 297 291 284 280 279 280 283 284 284 282 280 281 282 281 280 283 290 299 294 284 279 270 258 259 262 264 281 309 325 331 328 311 265 213 46 10 88 136 141 148 149 146 154 165 176 191 194 186 183 185 181 177 178 177 175 171 167 166 169 170 169 168 166 166 164 157 151
230 235 238 242 247 238 217 211 218 219 221 229 235 246 264 280 289 290 290 294 296 293 286 281 281 283 283 282 281 280 280 279 278 279 281 284 287 284 276 274 273 264 260 260 259 261 280 298 319 326 298 218 191 130 32 119 130 129 128 127 127 133 142 150 155 149 137 135 138 138 139 145 148 149 152 156 159 163 165 166 168 168 167 167 166 166
227 242 244 232 228 225 219 218 222 225 230 237 246 259 273 281 287 290 291 292 293 293 289 283 281 281 279 278 281 281 281 280 279 278 278 276 274 276 275 275 276 270 263 259 254 252 263 273 303 325 249 207 195 137 125 140 130 126 125 124 126 131 137 141 142 138 135 137 137 135 137 140 142 144 149 152 156 162 167 169 172 176 182 189 194 196
224 226 231 223 220 224 226 228 231 234 236 241 250 264 275 280 286 290 292 291 287 285 283 282 280 279 276 277 281 283 282 281 278 277 276 271 266 267 269 271 271 267 261 254 243 234 229 236 274 291 211 202 193 166 175 162 124 126 131 130 132 137 138 136 138 138 137 135 135 136 139 141 143 146 150 152 155 160 166 173 179 186 197 206 211 214